Location: Cartignies
(50.0929°N, 3.8447°E)
Time: 13:38:45
(UTC+00:00)

Cosmos 1934 Rocket - Pass Details

Date: 12 January 2026
Orbit: 938 x 998 km, 83.0° (Epoch: 15 February)

Event Time Altitude Azimuth Distance (km) Brightness Sun altitude
Rises 18:02:32 0° 355° (N) 3,621 6.9 -17.8°
Reaches altitude 10° 18:05:16 10° 4° (N) 2,678 6.1 -18.3°
Maximum altitude 18:10:48 34° 69° (ENE) 1,514 4.5 -19.1°
Enters shadow 18:11:46 33° 88° (E) 1,565 4.5 -19.3°
